Location: Dos Palmas
(32.4468°N, 116.8732°W)
Time: 02:21:11
(UTC+00:00)

Nadezhda 4 Rocket - Pass Details

Date: 20 June 2021
Orbit: 950 x 992 km, 82.9° (Epoch: 27 July)

Event Time Altitude Azimuth Distance (km) Brightness Sun altitude
Exits shadow 09:13:39 61° 308° (NW) 1,080 4.2 -30.6°
Drops below altitude 10° 09:19:07 10° 359° (N) 2,683 7.1 -30.1°
Sets 09:21:38 0° 2° (N) 3,629 8.0 -29.9°
